{"data":{"norad_id":46142,"intl_designator":"2020-057AB","name":"STARLINK-1597","alt_names":[],"object_type":"PAYLOAD","status":"ACTIVE","operator":null,"country":"US","launch_date":"2020-08-18","launch_site_code":"AFETR","launch_vehicle":null,"mission":null,"orbit_class":"UNKNOWN","rcs_meters":null,"size_class":null,"mass_kg":null,"dimensions":null,"purposes":["comms"],"wikipedia_slug":null,"has_3d_model":false,"image_url":null,"decayed_at":null,"tle_current":{"epoch":"2026-08-24T05:07:13.330272Z","epoch_age_seconds":2375687,"freshness":"OLD","line1":"1 46142U 20057AB  26236.21334873  .06047168  12170-4  80725-3 0  9993","line2":"2 46142  53.0198 180.4268 0006916 239.5482 120.4880 16.34619171332762","mean_motion":16.34619171,"eccentricity":0.0006916,"inclination_deg":53.0198,"raan_deg":180.4268,"arg_perigee_deg":239.5482,"mean_anomaly_deg":120.488,"bstar":0.00080725,"rev_number":33276,"period_min":88.09391358839,"perigee_km":175.6197894584,"apogee_km":184.6912196507,"semimajor_km":6558.2925045545,"source":"CELESTRAK","updated_at":"2026-08-24T09:00:32.616787Z"}}}